Location: T�bingen+AIT
(48.5342°N, 9.0700°E)
Time: 19:32:26
(UTC+01:00)

Nadezhda 3 Rocket - Pass Details

Date: 14 September 2017
Orbit: 956 x 1001 km, 82.9° (Epoch: 21 November)

Event Time Altitude Azimuth Distance (km) Brightness Sun altitude
Rises 21:46:23 0° 352° (N) 3,734 7.6 -20.8°
Reaches altitude 10° 21:48:59 10° 356° (N) 2,778 6.8 -21.2°
Maximum altitude 21:55:19 64° 77° (ENE) 1,094 4.0 -22.1°
Enters shadow 21:57:23 43° 140° (SE) 1,371 4.3 -22.4°
